Regional Weather Roundup
Issued by NWS

Home | Current Version | Previous Version | Graphics & Text | Print | Product List | Glossary On
Versions: 1 2 3 4 5 6 7 8 9 10 11 12 13 14 15 16 17 18 19 20 21 22 23 24 25 26 27 28 29 30 31 32 33 34 35 36 37 38 39 40 41 42 43 44 45 46 47 48 49 50
000
ASUS45 KSLC 281510
RWRUT

UTAH REGIONAL WEATHER ROUNDUP
NATIONAL WEATHER SERVICE SALT LAKE CITY UT
800 AM MST FRI NOV 28 2014

UTZ001>011-023>025-281600-

NORTHERN UTAH

CITY           SKY/WX    TMP DP  RH WIND       PRES   REMARKS
BRIGHAM CITY   CLOUDY    35  28  77 S3        30.01F
HILL AFB       CLOUDY    45  21  38 S10       30.02F
LOGAN          CLEAR     32  27  81 CALM      30.00F
OGDEN          CLOUDY    42  25  50 S10       30.00F
PROVO AIRPORT  CLOUDY    32  27  80 CALM      30.08F
SALT LAKE CITY CLOUDY    47  22  37 SE10      30.00F
VERNAL         PTCLDY    27  20  75 W5        30.14F WCI  22
WENDOVER       CLOUDY    30  21  69 E7        30.00F WCI  23
HEBER CITY     CLOUDY    30  25  80 CALM      30.09S
WEST JORDAN    CLEAR     48  27  43 S17       30.03F

$$

UTZ012>022-026-027-281600-

SOUTHERN/CENTRAL UTAH

CITY           SKY/WX    TMP DP  RH WIND       PRES   REMARKS
BLANDING       MOCLDY    31  22  70 NW7       30.32F WCI  24
BRYCE CANYON   PTCLDY    16  11  80 W6        30.26F WCI   7
CEDAR CITY     PTCLDY    33  12  41 CALM      30.15F
DELTA          CLOUDY    43  16  33 S12       30.08S
MILFORD        PTCLDY    33  13  43 SW20      30.11F WCI  21
MOAB/CYNLANDS  CLEAR     21  11  65 CALM      30.20F
PRICE          MOCLDY    30  21  69 N5        30.20S WCI  25
ST GEORGE      CLOUDY    32  14  47 CALM      30.19S
KANAB          PTCLDY    27  12  54 NE5       30.25S WCI  21

$$

REGIONAL REPORTS     COLORADO/ARIZONA

CITY           SKY/WX    TMP DP  RH WIND       PRES   REMARKS
CRAIG, CO      PTCLDY    24  19  81 SE5       30.16S WCI  18
GRAND JUNCTION CLEAR     27  23  85 E6        30.22S WCI  20
RIFLE          PTCLDY    26  23  88 CALM      30.24S
MONTROSE       CLEAR     27  19  72 S8        30.25S WCI  19
CORTEZ         CLEAR     22  16  78 E5        30.28R WCI  16
PAGE, AZ       MOCLDY    36  18  48 CALM      30.22S HAZE
GRAND CANYON   MOCLDY    18   4  54 CALM      30.27F
KINGMAN        PTCLDY    43  12  28 CALM      30.13S
FLAGSTAFF      PTCLDY    29  13  51 CALM      30.30R

$$

REGIONAL REPORTS    NEVADA/IDAHO/WYOMING

CITY           SKY/WX    TMP DP  RH WIND       PRES   REMARKS
LAS VEGAS, NV  PTCLDY    44  21  40 SW7       30.07S
ELY            MOCLDY    30  11  45 SE9       30.15S WCI  22
ELKO           CLOUDY    28  23  81 NW3       30.03S
POCATELLO, ID  CLEAR     41  27  57 VRB5      29.92S
BURLEY         CLOUDY    52  22  30 SW14      29.90S
EVANSTON, WY   MOCLDY    39  15  37 SW9       30.07F WCI  33
ROCK SPRINGS   PTCLDY    40  15  36 W8        30.05F WCI  34

$$



USA.gov is the U.S. government's official web portal to all federal, state and local government web resources and services.